RH
68 64 73 47 25 41 42 25 32 46 63 62 61 66 79 83 77 76 66 65 67 76 80 80 83 84 84 84 83 83 82 82 82 79 75 74 73 72 72 71 70 71 72 72 73 74 76 78 73
68 57 61 54 32 28 25 28 51 54 59 60 52 61 68 78 67 64 71 62 62 70 76 82 81 81 82 84 85 86 84 83 83 81 79 77 76 76 77 77 76 76 77 78 78 78 75 78 82
65 61 56 49 46 20 21 36 60 60 56 54 54 50 52 69 60 60 67 61 64 67 68 76 76 77 77 77 78 79 81 84 85 85 83 80 77 76 76 76 79 81 82 83 82 82 80 79 84
69 66 54 47 31 26 29 50 61 49 46 47 52 57 41 38 48 50 52 55 58 66 63 64 60 60 62 64 66 67 67 70 74 79 79 81 83 82 78 79 82 84 84 82 81 83 83 83 84
75 65 58 50 37 30 66 48 51 50 51 52 52 58 48 39 50 48 48 48 57 63 61 59 58 59 58 56 55 56 55 56 55 54 56 58 60 71 80 83 83 83 82 81 80 82 82 83 84
82 56 48 40 32 54 53 44 45 51 52 51 51 52 51 41 53 59 59 62 62 62 62 61 62 60 59 54 55 55 53 52 53 54 54 54 55 55 59 81 82 82 81 81 81 82 81 81 82
77 66 43 35 39 50 46 40 49 46 50 54 47 56 51 46 58 61 62 65 69 69 68 68 66 62 61 60 61 61 54 56 54 56 58 59 61 60 60 70 83 78 77 81 83 82 82 82 82
73 59 50 41 44 43 38 35 45 40 44 39 44 53 51 42 59 64 66 69 70 70 72 70 70 68 66 63 64 65 63 62 61 61 67 69 66 65 58 62 64 59 64 72 76 80 82 84 85
49 63 49 39 40 37 34 33 32 36 39 42 46 50 44 48 62 66 73 74 72 67 71 73 74 71 69 62 64 67 65 65 68 72 75 76 76 72 65 72 74 68 65 69 74 76 75 86 88
56 64 47 45 44 38 36 34 34 37 44 47 50 46 49 57 61 68 74 77 76 76 74 76 78 74 72 57 77 76 64 75 82 82 84 85 86 84 75 78 75 70 70 66 63 63 64 76 86
55 51 48 42 42 36 33 34 34 38 44 47 49 48 53 60 64 70 75 76 75 78 76 74 76 75 77 79 84 84 82 87 89 85 86 88 86 91 90 90 86 82 75 73 71 71 68 71 74
50 44 42 41 41 36 34 32 34 34 37 35 42 44 50 58 64 75 77 78 74 75 75 73 75 73 78 84 87 87 87 89 90 86 84 92 95 94 95 96 93 90 86 84 82 82 77 73 72
52 46 38 39 37 35 32 36 30 36 45 41 39 40 46 52 64 71 72 73 74 74 73 73 73 75 74 79 86 88 91 91 90 87 85 87 92 95 96 96 96 96 93 88 87 86 85 85 81
47 46 42 37 36 35 32 33 32 33 44 39 38 42 44 50 64 72 71 71 68 68 71 68 66 71 71 78 82 91 92 88 88 89 88 86 89 94 96 96 94 94 95 90 88 89 93 94 92
45 44 43 39 38 36 37 36 38 33 39 40 39 40 46 59 64 65 65 66 65 64 66 64 65 69 71 74 81 90 85 81 88 88 85 81 81 94 94 94 94 93 92 81 84 85 92 93 82
48 51 54 42 41 37 39 48 34 32 36 40 37 40 52 60 59 59 62 60 63 66 66 65 56 67 68 71 81 87 86 87 85 82 79 75 71 79 93 87 87 84 78 72 79 86 94 92 87
60 77 61 51 41 40 36 42 33 32 32 35 35 40 48 56 60 64 62 62 64 65 67 65 64 65 66 70 83 90 86 87 84 76 74 68 66 69 80 78 77 76 74 73 72 75 91 89 80
72 70 54 56 43 41 40 36 33 30 32 34 37 39 48 56 59 63 65 65 65 67 68 67 66 65 67 80 93 90 89 88 83 71 69 63 64 63 71 73 76 78 74 73 70 73 75 90 78
51 51 56 58 45 44 44 36 30 30 31 32 34 37 44 52 53 64 65 66 69 72 70 69 67 66 71 81 93 95 94 92 85 67 62 61 63 63 66 71 70 79 73 70 64 73 79 81 75
54 59 69 54 48 44 44 41 34 30 30 28 28 30 34 44 50 63 71 74 75 73 73 72 67 65 69 81 88 94 94 92 84 68 62 62 60 62 54 65 68 71 71 61 68 72 79 78 80
55 53 63 58 49 42 41 42 38 37 33 30 29 29 28 35 48 63 71 78 80 78 79 73 70 66 68 72 82 94 94 95 82 74 70 62 57 61 60 60 62 68 71 69 70 69 71 77 74
56 48 51 54 53 66 40 61 38 38 36 35 32 33 32 30 45 68 73 80 81 80 83 78 72 69 63 69 78 85 94 96 90 76 72 65 54 55 60 58 60 65 71 67 68 61 71 78 69
50 50 49 52 52 50 49 61 26 40 36 37 36 36 37 50 59 75 77 73 80 80 86 83 76 72 67 68 73 82 83 82 77 75 69 69 62 54 55 54 55 60 67 66 66 66 66 72 67
46 54 55 59 58 69 52 43 27 43 41 55 61 52 58 67 65 60 70 80 82 87 89 88 83 77 72 67 68 73 81 78 77 74 75 75 69 65 55 54 55 57 60 62 67 68 63 69 68
54 60 82 65 72 66 76 51 30 49 60 53 64 70 71 69 72 76 80 82 83 88 90 89 87 82 75 71 69 69 72 78 75 72 73 71 68 68 64 55 57 57 56 60 63 67 64 67 71
68 61 76 50 66 72 64 64 34 58 61 63 65 72 72 75 71 74 74 79 82 83 88 90 88 89 84 74 70 69 69 78 77 72 75 73 69 65 62 58 56 55 55 57 60 69 70 68 74
57 80 63 68 80 75 78 60 55 61 61 65 70 67 72 73 70 72 73 78 80 83 84 88 90 90 88 80 73 70 68 68 70 68 69 69 67 58 59 58 55 54 55 56 57 63 65 67 69
53 52 63 82 65 54 83 70 74 72 64 66 68 66 68 70 72 70 70 74 78 83 86 87 89 89 88 87 80 68 67 63 63 65 65 66 63 63 58 57 56 55 56 56 57 61 62 68 73
61 64 66 67 77 79 78 66 62 65 62 68 57 53 53 55 59 59 54 49 52 72 85 87 89 90 90 90 88 84 72 63 60 59 58 59 61 60 59 54 49 51 52 53 56 58 59 63 66
77 69 57 60 55 73 66 59 60 65 60 56 52 40 42 41 41 43 44 46 46 49 56 82 88 89 89 89 89 89 84 71 61 55 54 55 56 57 56 56 53 50 48 46 47 50 44 53 57
Wind_Speed
3 4 2 4 5 5 3 6 1 5 4 6 4 8 13 5 3 5 4 9 9 6 7 8 11 12 11 10 9 8 7 7 6 5 2 2 1 1 1 2 2 3 4 5 5 4 4 4 2
1 1 4 3 6 3 6 4 4 3 8 9 7 5 8 5 2 6 5 5 9 8 6 6 11 11 11 12 11 10 8 8 7 6 3 3 1 2 3 4 3 3 4 4 5 5 5 5 6
2 2 4 5 4 6 5 4 6 5 6 3 6 8 6 4 1 4 6 6 10 7 5 6 10 11 11 11 11 10 10 10 9 9 8 5 4 4 4 4 4 4 5 5 6 5 5 6 7
1 4 4 4 5 6 5 7 6 8 5 7 7 10 5 4 2 6 6 6 10 7 6 7 10 11 11 11 10 10 9 9 9 9 9 9 9 7 6 4 3 4 5 6 6 6 6 6 6
3 3 3 2 5 4 2 7 4 6 5 5 1 5 5 4 6 9 7 7 9 6 5 5 10 10 10 10 9 8 8 8 8 8 8 9 10 10 9 8 5 5 5 6 7 8 7 6 5
4 4 3 4 5 1 2 4 7 5 3 5 8 7 3 4 6 5 7 8 8 7 6 6 9 9 8 10 9 8 8 8 8 8 10 11 13 12 10 9 8 7 7 7 8 8 9 9 9
6 5 6 6 7 3 5 3 7 7 5 4 8 7 3 4 7 7 8 8 7 7 6 6 5 7 9 7 11 10 7 9 7 9 10 12 13 14 10 9 8 9 10 10 10 10 11 10 9
5 4 4 5 7 5 5 3 2 8 5 4 3 8 7 6 8 8 8 7 7 6 6 5 5 6 5 5 12 12 11 10 11 10 12 12 12 13 11 11 10 12 11 9 10 11 13 13 10
3 4 3 7 7 6 5 5 3 3 8 4 6 4 5 12 9 8 6 5 5 4 5 4 5 6 6 5 7 10 10 12 12 10 13 9 5 6 7 9 12 14 14 11 11 11 13 11 9
4 4 6 1 3 6 5 6 7 6 4 5 4 8 12 12 9 9 7 5 3 3 3 4 5 5 5 4 5 5 6 4 5 5 6 4 5 6 8 9 13 13 15 14 13 12 12 9 4
4 5 1 1 4 7 8 6 4 11 2 6 11 14 9 8 7 8 6 6 5 3 2 3 4 4 5 4 3 3 3 3 3 6 5 5 5 4 4 4 4 5 8 5 6 6 4 6 4
5 1 1 5 5 5 6 6 6 2 3 10 14 14 8 9 8 8 7 7 6 4 3 3 3 4 4 3 3 3 3 3 3 4 5 4 3 4 4 3 4 4 4 5 5 4 5 6 5
3 2 4 4 7 8 9 6 7 5 4 13 12 9 9 8 8 5 7 6 6 4 3 2 2 3 3 4 3 4 3 3 3 4 5 4 4 4 4 4 4 4 4 4 4 4 5 5 6
4 3 3 7 7 7 8 3 4 4 5 12 11 9 8 9 9 6 6 6 5 4 3 1 2 3 4 3 4 2 2 3 3 3 4 5 4 4 4 4 4 4 4 4 4 4 4 4 4
7 6 6 9 6 4 3 5 3 3 6 10 9 7 7 8 8 10 8 7 7 4 4 2 2 2 3 3 3 2 2 3 4 4 5 6 5 4 4 4 4 4 4 5 4 5 4 4 5
6 6 5 4 4 3 3 4 4 6 10 8 8 7 7 7 9 7 8 7 6 5 5 2 3 3 2 3 2 2 2 3 3 3 3 6 5 5 5 4 4 4 4 4 4 4 4 4 4
6 6 4 1 4 2 3 3 4 5 7 8 8 7 7 7 6 6 7 7 7 7 6 3 2 1 3 3 2 3 2 2 2 3 4 5 5 5 4 4 4 5 4 4 4 3 3 4 6
5 7 5 5 4 2 2 3 4 6 7 9 8 7 8 8 10 8 8 7 7 7 5 4 2 1 2 3 3 2 2 2 3 3 3 4 4 5 5 4 5 4 4 4 4 4 3 3 4
8 7 8 1 3 3 5 4 7 7 5 8 8 8 9 11 7 7 7 7 7 6 6 4 3 1 1 1 1 1 0 2 1 2 3 4 4 5 5 4 4 4 4 4 5 3 4 3 5
5 8 4 4 1 1 4 5 6 8 8 9 11 9 10 6 5 7 8 7 7 7 6 5 5 3 2 1 1 2 2 2 1 1 2 3 4 4 4 4 4 4 3 5 5 5 3 2 5
2 7 6 8 4 2 4 6 5 6 6 6 7 6 6 11 9 8 9 8 7 7 7 7 6 5 3 3 1 1 1 1 1 1 1 1 3 3 3 4 3 3 3 3 3 4 4 2 2
4 3 6 12 6 4 2 5 4 2 6 7 8 8 8 8 6 6 8 8 8 8 6 6 6 5 4 3 2 3 3 3 3 3 2 1 1 2 2 2 3 3 2 4 3 3 2 1 3
6 8 7 4 5 6 2 6 7 3 2 1 6 8 6 3 6 7 9 9 6 6 7 6 6 5 4 4 4 3 3 2 1 1 2 2 1 1 1 1 2 2 2 2 2 3 3 2 2
6 8 9 5 4 4 1 5 6 1 1 2 3 3 6 5 5 4 4 6 5 5 6 6 6 6 6 5 5 5 5 4 3 3 3 3 2 2 3 2 2 2 2 1 1 1 1 1 2
7 7 4 6 5 6 4 2 8 2 1 3 6 5 5 5 5 4 5 5 6 7 7 6 7 7 6 6 6 6 7 6 6 5 4 4 3 3 5 3 3 2 2 2 1 2 2 2 1
4 5 8 8 5 4 3 6 5 1 4 5 4 3 2 3 2 4 6 6 7 7 8 7 7 7 7 7 7 6 7 5 5 6 4 4 4 4 4 6 5 5 5 4 3 2 3 3 3
3 1 4 8 3 5 3 4 6 2 3 3 3 3 4 4 4 6 6 7 8 8 9 9 8 8 7 8 7 7 7 7 6 7 6 5 5 5 6 6 6 6 5 5 4 3 4 4 3
2 4 3 4 4 3 5 4 6 5 6 4 3 4 3 4 5 3 4 5 6 7 7 7 7 9 8 7 7 7 8 8 7 6 7 8 7 6 6 7 6 6 6 6 5 4 3 4 4
2 1 4 4 4 6 4 7 6 7 7 8 6 6 6 4 1 0 2 4 5 5 5 7 7 7 7 7 7 7 7 8 7 8 8 8 6 7 7 7 6 6 6 5 5 6 6 6 6
2 2 4 6 4 1 3 5 2 8 8 7 6 5 3 4 4 2 3 4 6 6 6 6 6 6 7 6 6 8 7 7 7 8 9 7 9 7 8 8 8 7 7 7 7 7 7 7 7
Wind_Direction
304 331 73 44 72 66 243 257 241 109 68 344 70 107 103 42 66 155 98 104 99 71 50 61 74 79 79 79 73 71 68 63 55 68 97 111 107 18 348 329 329 339 347 353 352 355 354 349 235
12 282 43 78 103 121 252 243 141 169 154 165 81 63 54 73 74 102 81 92 105 80 58 57 79 78 75 69 66 64 60 68 41 34 41 55 20 303 298 288 289 300 313 325 336 335 331 331 308
322 201 94 127 150 185 199 176 159 116 150 115 103 42 83 105 37 89 121 131 90 76 61 67 74 74 70 66 61 55 48 41 35 28 17 8 1 343 320 319 320 317 314 313 314 317 322 318 314
86 23 26 116 210 241 204 161 163 137 103 67 103 69 63 326 51 109 134 116 89 79 69 72 70 67 63 57 52 48 43 39 34 28 15 11 6 359 331 322 313 295 299 299 301 299 303 308 319
42 69 100 185 224 259 237 157 153 115 98 65 64 120 69 30 78 100 111 94 96 79 49 53 69 64 58 51 44 38 31 25 21 16 7 4 356 347 336 331 323 308 295 289 292 295 290 278 286
70 104 105 201 185 274 35 164 122 77 99 155 75 93 103 127 106 112 96 87 86 84 56 44 47 51 46 40 38 25 20 17 11 12 6 1 355 341 325 331 336 322 308 301 304 308 311 306 293
125 117 195 176 156 142 182 169 108 121 106 58 128 86 141 154 141 123 98 85 78 70 65 48 38 34 22 16 26 17 7 5 357 11 11 12 8 2 6 338 342 348 338 329 327 322 314 305 300
126 108 155 214 168 188 171 94 85 91 73 116 116 150 180 193 150 110 88 86 79 68 59 42 28 25 21 17 20 24 18 27 34 31 20 19 11 10 10 11 349 338 314 320 320 322 320 310 299
116 86 179 201 158 170 168 127 33 16 93 59 355 135 153 136 127 101 97 83 75 57 49 44 32 22 11 17 18 17 13 25 38 34 29 20 6 356 5 359 6 6 8 344 330 333 326 304 312
112 135 189 151 261 167 121 107 128 94 98 47 46 56 109 128 133 132 139 135 118 93 52 43 35 22 18 12 15 16 20 34 40 32 27 14 18 9 16 12 18 17 18 16 10 359 360 20 13
157 168 204 311 272 155 132 110 97 126 94 195 161 146 136 134 139 138 148 158 158 149 78 45 37 25 25 18 10 14 28 39 26 24 24 19 16 7 9 3 4 357 9 9 8 5 9 8 17
106 347 118 341 306 121 118 112 78 51 139 156 152 147 135 150 154 155 154 162 159 143 122 79 43 28 21 13 18 17 31 33 26 15 24 30 17 13 11 10 358 2 357 8 11 9 359 10 3
96 201 63 355 57 59 79 55 136 16 86 118 129 141 147 154 157 160 155 157 153 143 135 91 67 34 10 24 12 25 31 38 15 20 14 27 26 20 10 13 12 2 354 8 4 6 8 8 3
125 63 57 32 29 44 97 69 74 19 118 118 140 158 160 161 165 143 160 167 171 155 150 145 68 37 15 11 27 26 27 35 13 24 3 15 26 34 28 19 14 7 0 354 6 5 3 0 358
135 77 22 18 16 65 336 35 79 135 122 134 149 160 162 170 160 172 180 170 166 173 154 177 143 62 19 353 29 71 15 52 43 49 24 35 34 37 35 26 19 5 358 2 7 2 2 6 355
94 60 108 318 0 356 64 200 173 164 136 155 159 169 167 181 186 185 176 158 166 154 158 147 77 80 4 335 43 120 23 79 76 55 32 33 26 30 37 35 21 12 13 12 6 6 357 356 353
18 134 101 54 1 107 69 160 190 169 151 176 186 177 175 187 200 194 166 167 170 160 153 148 80 60 355 347 49 110 58 64 88 66 42 29 32 37 54 39 22 24 23 15 3 356 11 3 351
161 106 91 145 220 60 118 114 163 189 177 197 201 203 203 195 204 184 179 180 161 151 155 145 117 68 3 31 102 67 44 15 67 66 55 39 35 40 45 36 31 31 31 13 6 10 343 6 333
123 119 114 56 250 101 189 146 202 201 207 212 215 213 218 216 215 178 184 174 152 165 162 161 166 191 73 71 127 66 218 303 89 70 76 53 37 41 46 42 36 33 46 25 12 343 9 337 347
92 117 91 64 147 60 180 246 224 199 216 206 207 217 220 229 202 183 192 182 180 181 181 176 191 175 172 164 202 170 182 242 150 86 55 57 50 33 57 47 41 40 44 30 22 18 342 352 360
134 150 166 144 148 20 119 315 219 229 219 210 219 216 215 218 209 194 195 191 186 193 191 193 192 191 185 193 140 133 49 24 56 326 318 351 58 46 52 50 53 43 47 41 23 14 30 353 328
164 168 129 130 104 176 95 250 262 238 230 215 217 217 227 219 213 186 178 183 200 208 197 197 189 191 200 187 191 202 208 210 223 197 213 196 126 69 62 62 56 54 48 41 6 25 4 33 16
191 132 129 122 100 97 320 76 263 313 166 175 212 224 218 216 191 184 188 198 193 192 199 198 194 204 197 196 203 207 227 238 233 193 204 229 243 209 168 107 79 63 55 41 37 24 21 17 54
127 85 46 50 78 42 262 123 286 216 232 130 33 99 139 120 111 156 210 183 191 194 194 198 204 218 207 205 215 215 222 224 211 222 226 238 240 244 242 196 165 169 169 176 200 184 117 96 104
80 72 26 15 17 206 308 76 238 309 63 160 148 144 149 139 136 153 150 169 187 198 204 209 211 228 219 214 221 222 227 223 223 224 219 217 226 226 233 218 213 215 216 224 220 229 218 196 170
77 132 151 167 172 214 343 227 253 180 74 84 112 138 155 171 197 205 205 207 213 213 213 215 219 233 222 217 226 225 227 219 223 225 224 237 230 232 221 220 214 216 213 212 207 208 213 200 199
178 357 164 109 36 72 224 277 328 147 115 120 138 171 210 229 228 234 235 227 228 227 224 214 218 229 224 220 219 224 222 220 225 230 224 226 230 233 227 219 221 222 223 222 217 221 227 213 217
98 145 67 357 126 201 294 250 229 193 189 174 174 192 216 219 225 257 280 272 261 249 248 237 225 228 227 221 218 222 218 219 224 224 230 225 231 227 228 222 222 225 224 221 215 231 247 232 241
26 31 61 117 114 149 146 259 215 195 171 179 198 209 215 215 189 26 360 333 325 306 268 250 234 234 238 225 225 224 226 223 224 228 234 232 233 228 231 227 227 231 234 232 230 235 237 230 235
226 237 139 115 222 91 139 268 295 168 174 166 190 174 126 124 129 69 2 353 4 351 344 280 259 244 244 243 238 236 236 229 232 237 235 226 230 222 223 219 221 223 221 217 220 230 227 225 237